Retour au catalogue

METEOR 2-5 DEB

ActifPO
NORAD 38274·DEBRIS·🇷🇺 Russia

Lancé Oct 31, 1979 depuis Plesetsk Cosmodrome

Loading…

Prochains Passages (prochaines 24 heures)

TLE

VieillissantSource: Space-Track

Époque: Sep 7, 2026, 16:09 UTC

1 38274U 79095BU  26250.67340291  .00005329  00000-0  13898-2 0  9991
2 38274  81.1881  20.8531 0015564  82.5767 277.7193 14.49342643624444

Suivez METEOR 2-5 DEB en temps réel avec AllMySat

Download on the App Store